FW4608 Weather Reports


time (UTC)temp
C
wind
direction
speed
KPH
gust
KPH
rain 1hr
cm
rain 24hr
cm
rain mn
cm
humidity
%
barometer
mb
20230208165523 25 288 1.6 8.0 0.00 0.00 0.00 56 1027.7
20230208165023 25 14 0.0 8.0 0.00 0.00 0.00 60 1027.8
20230208164528 25 164 0.0 3.2 0.00 0.00 0.00 59 1027.8
20230208164020 25 338 0.0 4.8 0.00 0.00 0.00 58 1027.8
20230208163519 24 338 1.6 4.8 0.00 0.00 0.00 61 1027.8
20230208163019 24 95 0.0 3.2 0.00 0.00 0.00 60 1027.8
20230208162519 24 182 0.0 6.4 0.00 0.00 0.00 61 1027.8
20230208162018 24 252 3.2 6.4 0.00 0.00 0.00 61 1028.0
20230208161519 24 311 1.6 8.0 0.00 0.00 0.00 63 1028.0
20230208161019 24 287 1.6 6.4 0.00 0.00 0.00 63 1028.0
20230208160516 24 101 0.0 8.0 0.00 0.00 0.00 65 1028.2
20230208160015 23 181 0.0 8.0 0.00 0.00 0.00 67 1028.1
20230208155513 23 231 0.0 8.0 0.00 0.00 0.00 64 1028.1
20230208155012 23 214 1.6 8.0 0.00 0.00 0.00 65 1028.1
20230208154517 23 209 1.6 6.4 0.00 0.00 0.00 68 1028.2
20230208154011 23 140 1.6 0.0 0.00 0.00 0.00 68 1028.1
20230208153510 23 192 1.6 8.0 0.00 0.00 0.00 67 1028.0
20230208153010 23 226 1.6 6.4 0.00 0.00 0.00 69 1028.1
20230208152509 22 134 1.6 6.4 0.00 0.00 0.00 70 1028.0
20230208152006 22 218 1.6 4.8 0.00 0.00 0.00 70 1028.0
20230208151505 22 149 0.0 3.2 0.00 0.00 0.00 73 1028.0
20230208151004 21 219 0.0 3.2 0.00 0.00 0.00 74 1028.0
20230208150503 21 156 0.0 3.2 0.00 0.00 0.00 75 1028.0
20230208150003 21 255 0.0 3.2 0.00 0.00 0.00 79 1028.1
20230208145600 20 108 0.0 1.6 0.00 0.00 0.00 80 1028.0
20230208145058 20 181 0.0 3.2 0.00 0.00 0.00 82 1028.1
20230208144600 19 135 0.0 3.2 0.00 0.00 0.00 85 1028.0
20230208144056 18 132 0.0 3.2 0.00 0.00 0.00 88 1028.0
20230208143555 17 172 0.0 3.2 0.00 0.00 0.00 95 1027.9
20230208143103 17 114 0.0 1.6 0.00 0.00 0.00 96 1027.8
20230208142552 17 114 0.0 0.0 0.00 0.00 0.00 96 1027.8
20230208142051 16 115 0.0 1.6 0.00 0.00 0.00 96 1027.8
20230208141550 16 60 0.0 1.6 0.00 0.00 0.00 96 1027.8
20230208141051 16 60 0.0 1.6 0.00 0.00 0.00 96 1027.9
20230208140547 15 60 0.0 0.0 0.00 0.00 0.00 96 1027.9
20230208140101 15 60 0.0 0.0 0.00 0.00 0.00 96 1027.9
20230208135545 15 60 0.0 0.0 0.00 0.00 0.00 96 1027.8
20230208135046 13 60 0.0 0.0 0.00 0.00 0.00 96 1027.8
20230208134546 13 60 0.0 0.0 0.00 0.00 0.00 96 1027.8
20230208134041 12 60 0.0 0.0 0.00 0.00 0.00 96 1027.9
20230208133540 12 60 0.0 0.0 0.00 0.00 0.00 96 1027.9
20230208133101 11 60 0.0 0.0 0.00 0.00 0.00 95 1027.8
20230208132539 11 60 0.0 0.0 0.00 0.00 0.00 95 1027.8
20230208132038 11 60 0.0 0.0 0.00 0.00 0.00 95 1027.7
20230208131538 11 60 0.0 0.0 0.00 0.00 0.00 95 1027.6
20230208131039 11 60 0.0 0.0 0.00 0.00 0.00 95 1027.6
20230208130538 11 60 0.0 0.0 0.00 0.00 0.00 95 1027.5
20230208130038 10 60 0.0 0.0 0.00 0.00 0.00 95 1027.4
20230208125540 10 60 0.0 0.0 0.00 0.00 0.00 95 1027.3
20230208125037 10 60 0.0 0.0 0.00 0.00 0.00 95 1027.3
20230208124539 10 60 0.0 0.0 0.00 0.00 0.00 95 1027.3
20230208124036 10 60 0.0 0.0 0.00 0.00 0.00 95 1027.3
20230208123536 10 60 0.0 0.0 0.00 0.00 0.00 95 1027.2
20230208123038 10 60 0.0 0.0 0.00 0.00 0.00 95 1027.2
20230208122536 10 60 0.0 0.0 0.00 0.00 0.00 94 1027.1
20230208122037 10 60 0.0 0.0 0.00 0.00 0.00 94 1027.1
20230208121536 10 60 0.0 0.0 0.00 0.00 0.00 94 1027.1
20230208121037 10 60 0.0 0.0 0.00 0.00 0.00 94 1027.0
20230208120535 10 60 0.0 0.0 0.00 0.00 0.00 94 1027.0
20230208120040 10 60 0.0 0.0 0.00 0.00 0.00 94 1027.0
20230208115535 10 60 0.0 0.0 0.00 0.00 0.00 94 1027.0
20230208115032 10 60 0.0 0.0 0.00 0.00 0.00 95 1026.9
20230208114532 10 60 0.0 0.0 0.00 0.00 0.00 95 1026.9
20230208114032 10 60 0.0 0.0 0.00 0.00 0.00 94 1026.9
20230208113531 10 60 0.0 0.0 0.00 0.00 0.00 94 1026.9
20230208113031 10 60 0.0 0.0 0.00 0.00 0.00 94 1026.7
20230208112531 10 60 0.0 0.0 0.00 0.00 0.00 94 1026.7
20230208112031 10 60 0.0 0.0 0.00 0.00 0.00 94 1026.8
20230208111530 10 60 0.0 0.0 0.00 0.00 0.00 94 1026.9
20230208111031 10 60 0.0 0.0 0.00 0.00 0.00 94 1026.8
20230208110530 10 60 0.0 0.0 0.00 0.00 0.00 94 1026.7
20230208110030 10 60 0.0 0.0 0.00 0.00 0.00 94 1026.7
20230208105533 10 60 0.0 0.0 0.00 0.00 0.00 94 1026.6
20230208105028 10 60 0.0 0.0 0.00 0.00 0.00 94 1026.5
20230208104533 10 60 0.0 0.0 0.00 0.00 0.00 94 1026.4
20230208104030 10 60 0.0 0.0 0.00 0.00 0.00 94 1026.4
20230208103528 10 60 0.0 0.0 0.00 0.00 0.00 94 1026.4
20230208103031 10 60 0.0 0.0 0.00 0.00 0.00 94 1026.4
20230208102528 10 60 0.0 0.0 0.00 0.00 0.00 94 1026.3
20230208102027 10 60 0.0 0.0 0.00 0.00 0.00 94 1026.3
20230208101530 10 60 0.0 0.0 0.00 0.00 0.00 94 1026.3
20230208101027 10 60 0.0 0.0 0.00 0.00 0.00 94 1026.4
20230208100526 10 60 0.0 0.0 0.00 0.00 0.00 94 1026.2
20230208100026 10 60 0.0 0.0 0.00 0.00 0.00 94 1026.2
20230208095526 10 60 0.0 0.0 0.00 0.00 0.00 94 1026.2
20230208095025 10 60 0.0 0.0 0.00 0.00 0.00 94 1026.1
20230208094526 10 60 0.0 0.0 0.00 0.00 0.00 94 1026.1
20230208094024 10 60 0.0 0.0 0.00 0.00 0.00 94 1026.2
20230208093523 11 60 0.0 0.0 0.00 0.00 0.00 94 1026.2
20230208093023 11 60 0.0 0.0 0.00 0.00 0.00 94 1026.1
20230208092523 11 60 0.0 0.0 0.00 0.00 0.00 94 1026.1
20230208092022 11 60 0.0 0.0 0.00 0.00 0.00 94 1026.1
20230208091521 11 60 0.0 0.0 0.00 0.00 0.00 94 1026.1
20230208091021 11 60 0.0 0.0 0.00 0.00 0.00 94 1026.1
20230208090521 11 60 0.0 0.0 0.00 0.00 0.00 94 1026.2
20230208090021 11 60 0.0 0.0 0.00 0.00 0.00 94 1026.1
20230208085521 11 60 0.0 0.0 0.00 0.00 0.00 94 1026.1
20230208085019 11 60 0.0 0.0 0.00 0.00 0.00 94 1026.1
20230208084521 11 60 0.0 0.0 0.00 0.00 0.00 94 1026.1
20230208084019 11 60 0.0 0.0 0.00 0.00 0.00 94 1026.3
20230208083520 11 60 0.0 0.0 0.00 0.00 0.00 94 1026.2
20230208083019 11 60 0.0 0.0 0.00 0.00 0.00 94 1026.3
20230208082520 11 60 0.0 0.0 0.00 0.00 0.00 94 1026.2
20230208082017 11 60 0.0 0.0 0.00 0.00 0.00 94 1026.2
20230208081523 11 60 0.0 0.0 0.00 0.00 0.00 94 1026.3
20230208081015 11 60 0.0 0.0 0.00 0.00 0.00 94 1026.4
20230208080517 11 60 0.0 0.0 0.00 0.00 0.00 94 1026.2
20230208080017 11 60 0.0 0.0 0.00 0.00 0.00 94 1026.3
20230208075514 11 60 0.0 0.0 0.00 0.00 0.00 94 1026.3
20230208075013 11 60 0.0 0.0 0.00 0.00 0.00 94 1026.4
20230208074525 11 60 0.0 0.0 0.00 0.00 0.00 94 1026.5
20230208074019 11 60 0.0 0.0 0.00 0.00 0.00 94 1026.6
20230208073512 11 60 0.0 0.0 0.00 0.00 0.00 93 1026.6
20230208073012 11 60 0.0 0.0 0.00 0.00 0.00 93 1026.6
20230208072513 11 60 0.0 0.0 0.00 0.00 0.00 93 1026.7
20230208072010 11 60 0.0 0.0 0.00 0.00 0.00 93 1026.6
20230208071510 11 60 0.0 0.0 0.00 0.00 0.00 93 1026.8
20230208071008 11 60 0.0 0.0 0.00 0.00 0.00 93 1026.7
20230208070507 11 60 0.0 0.0 0.00 0.00 0.00 93 1026.9
20230208070008 12 60 0.0 0.0 0.00 0.00 0.00 93 1026.9
20230208065506 12 60 0.0 0.0 0.00 0.00 0.00 93 1027.0
20230208065008 12 60 0.0 0.0 0.00 0.00 0.00 93 1027.0
20230208064508 12 60 0.0 0.0 0.00 0.00 0.00 93 1027.1
20230208064004 12 60 0.0 0.0 0.00 0.00 0.00 93 1027.0
20230208063504 12 60 0.0 0.0 0.00 0.00 0.00 93 1027.0
20230208063004 12 60 0.0 0.0 0.00 0.00 0.00 93 1027.0
20230208062505 12 60 0.0 0.0 0.00 0.00 0.00 93 1027.1
20230208062104 12 60 0.0 0.0 0.00 0.00 0.00 93 1027.0
20230208061510 12 60 0.0 0.0 0.00 0.00 0.00 93 1027.0
20230208061004 12 60 0.0 0.0 0.00 0.00 0.00 93 1027.0
20230208060502 12 60 0.0 0.0 0.00 0.00 0.00 93 1027.0
20230208060000 12 60 0.0 0.0 0.00 0.00 0.00 93 1027.1
20230208055603 12 60 0.0 0.0 0.00 0.00 0.00 93 1027.2
20230208055059 12 60 0.0 0.0 0.00 0.00 0.00 93 1027.2
20230208054616 12 60 0.0 0.0 0.00 0.00 0.00 93 1027.3
20230208054057 12 60 0.0 0.0 0.00 0.00 0.00 93 1027.3
20230208053557 13 60 0.0 0.0 0.00 0.00 0.00 93 1027.4
20230208053106 13 60 0.0 0.0 0.00 0.00 0.00 93 1027.5
20230208052557 13 60 0.0 0.0 0.00 0.00 0.00 93 1027.5
20230208052100 12 60 0.0 0.0 0.00 0.00 0.00 93 1027.4
20230208051604 13 60 0.0 0.0 0.00 0.00 0.00 93 1027.6
20230208051055 13 60 0.0 0.0 0.00 0.00 0.00 93 1027.5
20230208050554 13 60 0.0 0.0 0.00 0.00 0.00 93 1027.4
20230208050053 13 60 0.0 0.0 0.00 0.00 0.00 93 1027.5
20230208045554 13 60 0.0 0.0 0.00 0.00 0.00 92 1027.6
20230208045056 12 60 0.0 0.0 0.00 0.00 0.00 92 1027.7
20230208044601 13 60 0.0 1.6 0.00 0.00 0.00 92 1027.6
20230208044052 13 60 0.0 1.6 0.00 0.00 0.00 92 1027.5
20230208043553 13 60 0.0 0.0 0.00 0.00 0.00 92 1027.7
20230208043054 13 60 0.0 0.0 0.00 0.00 0.00 92 1027.8
20230208042555 13 60 0.0 0.0 0.00 0.00 0.00 92 1027.8
20230208042121 13 60 0.0 0.0 0.00 0.00 0.00 92 1027.9
20230208041551 13 60 0.0 0.0 0.00 0.00 0.00 92 1027.8
20230208041051 13 60 0.0 0.0 0.00 0.00 0.00 92 1028.0
20230208040551 13 60 0.0 0.0 0.00 0.00 0.00 92 1028.0
20230208040050 13 60 0.0 0.0 0.00 0.00 0.00 92 1027.9
20230208035551 13 60 0.0 0.0 0.00 0.00 0.00 91 1027.9
20230208035051 13 60 0.0 0.0 0.00 0.00 0.00 91 1028.1
20230208034550 13 60 0.0 0.0 0.00 0.00 0.00 91 1027.9
20230208034050 14 60 0.0 0.0 0.00 0.00 0.00 91 1028.0
20230208033549 14 60 0.0 0.0 0.00 0.00 0.00 91 1028.0
20230208033106 14 60 0.0 0.0 0.00 0.00 0.00 91 1028.0
20230208032554 14 60 0.0 0.0 0.00 0.00 0.00 91 1027.9
20230208032049 14 60 0.0 0.0 0.00 0.00 0.00 91 1027.9
20230208031553 14 60 0.0 0.0 0.00 0.00 0.00 90 1027.8
20230208031051 14 60 0.0 0.0 0.00 0.00 0.00 91 1027.9
20230208030552 14 60 0.0 0.0 0.00 0.00 0.00 91 1027.7
20230208030051 14 60 0.0 0.0 0.00 0.00 0.00 90 1027.8
20230208025548 14 60 0.0 0.0 0.00 0.00 0.00 90 1027.7
20230208025047 14 60 0.0 0.0 0.00 0.00 0.00 90 1027.7
20230208024553 14 60 0.0 0.0 0.00 0.00 0.00 90 1027.8
20230208024050 14 60 0.0 0.0 0.00 0.00 0.00 90 1027.7
20230208023548 14 60 0.0 0.0 0.00 0.00 0.00 89 1027.7
20230208023047 15 60 0.0 0.0 0.00 0.00 0.00 89 1027.7
20230208022547 15 60 0.0 0.0 0.00 0.00 0.00 89 1027.8
20230208022049 15 60 0.0 0.0 0.00 0.00 0.00 89 1027.8
20230208021547 15 60 0.0 0.0 0.00 0.00 0.00 89 1027.8
20230208021047 15 60 0.0 0.0 0.00 0.00 0.00 89 1027.8
20230208020545 15 60 0.0 0.0 0.00 0.00 0.00 88 1027.8
20230208020051 15 60 0.0 0.0 0.00 0.00 0.00 88 1027.8
20230208015546 15 60 0.0 0.0 0.00 0.00 0.00 88 1027.8
20230208015044 15 60 0.0 0.0 0.00 0.00 0.00 87 1027.8
20230208014548 15 60 0.0 0.0 0.00 0.00 0.00 87 1027.8
20230208014044 15 60 0.0 0.0 0.00 0.00 0.00 88 1027.8
20230208013545 15 60 0.0 0.0 0.00 0.00 0.00 87 1027.7
20230208013047 15 60 0.0 0.0 0.00 0.00 0.00 87 1027.6
20230208012546 15 60 0.0 0.0 0.00 0.00 0.00 87 1027.6
20230208012044 15 60 0.0 0.0 0.00 0.00 0.00 86 1027.6
20230208011544 16 60 0.0 0.0 0.00 0.00 0.00 86 1027.4
20230208011044 16 60 0.0 0.0 0.00 0.00 0.00 86 1027.5
20230208010544 16 60 0.0 0.0 0.00 0.00 0.00 85 1027.4
20230208010056 16 60 0.0 0.0 0.00 0.00 0.00 85 1027.3
20230208005542 16 60 0.0 1.6 0.00 0.00 0.00 84 1027.4
20230208005044 16 60 0.0 1.6 0.00 0.00 0.00 84 1027.3
20230208004542 16 60 0.0 0.0 0.00 0.00 0.00 84 1027.4
20230208004045 16 60 0.0 0.0 0.00 0.00 0.00 83 1027.4
20230208003543 16 60 0.0 0.0 0.00 0.00 0.00 82 1027.4
20230208003042 16 60 0.0 0.0 0.00 0.00 0.00 82 1027.4
20230208002542 17 72 0.0 1.6 0.00 0.00 0.00 82 1027.3
20230208002041 17 73 0.0 1.6 0.00 0.00 0.00 81 1027.3
20230208001542 17 74 0.0 1.6 0.00 0.00 0.00 81 1027.3
20230208001041 17 73 0.0 1.6 0.00 0.00 0.00 80 1027.3
20230208000541 17 66 0.0 1.6 0.00 0.00 0.00 80 1027.1
20230208000055 17 65 0.0 1.6 0.00 0.00 0.00 79 1027.1
20230207235541 17 65 0.0 1.6 0.00 0.00 0.00 78 1027.0
20230207235040 18 65 0.0 1.6 0.00 0.00 0.00 78 1027.0
20230207234547 18 356 0.0 1.6 0.00 0.00 0.00 77 1027.0
20230207234040 18 356 0.0 1.6 0.00 0.00 0.00 76 1026.9
20230207233544 18 355 0.0 1.6 0.00 0.00 0.00 75 1026.8
20230207233041 18 356 0.0 1.6 0.00 0.00 0.00 75 1026.8
20230207232640 18 58 0.0 1.6 0.00 0.00 0.00 74 1026.8
20230207232039 19 113 0.0 3.2 0.00 0.00 0.00 73 1026.8
20230207231541 19 130 0.0 4.8 0.00 0.00 0.00 72 1026.7
20230207231041 20 121 1.6 3.2 0.00 0.00 0.00 72 1026.7
20230207230540 20 137 0.0 4.8 0.00 0.00 0.00 71 1026.7
20230207230039 20 219 0.0 4.8 0.00 0.00 0.00 70 1026.6
20230207225539 20 87 0.0 4.8 0.00 0.00 0.00 69 1026.7
20230207225038 21 145 0.0 8.0 0.00 0.00 0.00 68 1026.7
20230207224539 21 144 0.0 8.0 0.00 0.00 0.00 67 1026.8
20230207224038 21 129 0.0 6.4 0.00 0.00 0.00 67 1026.7
20230207223538 21 92 0.0 6.4 0.00 0.00 0.00 66 1026.8
20230207223040 21 128 0.0 3.2 0.00 0.00 0.00 66 1026.8
20230207222538 22 109 0.0 4.8 0.00 0.00 0.00 65 1026.9
20230207222042 22 124 0.0 4.8 0.00 0.00 0.00 64 1026.8
20230207221540 22 289 0.0 3.2 0.00 0.00 0.00 63 1026.9
20230207221037 22 125 0.0 8.0 0.00 0.00 0.00 62 1026.9
20230207220537 22 201 1.6 8.0 0.00 0.00 0.00 60 1026.9
20230207220040 23 148 1.6 6.4 0.00 0.00 0.00 60 1026.9
20230207215538 23 121 0.0 6.4 0.00 0.00 0.00 59 1026.8
20230207215037 23 106 0.0 6.4 0.00 0.00 0.00 60 1026.8
20230207214539 23 94 0.0 6.4 0.00 0.00 0.00 59 1026.9
20230207214037 23 49 0.0 6.4 0.00 0.00 0.00 59 1026.8
20230207213536 23 105 1.6 8.0 0.00 0.00 0.00 58 1026.8
20230207213054 23 137 1.6 8.0 0.00 0.00 0.00 57 1026.8
20230207212536 23 111 0.0 8.0 0.00 0.00 0.00 59 1026.7
20230207212035 23 292 1.6 11.3 0.00 0.00 0.00 58 1026.8
20230207211546 24 289 1.6 11.3 0.00 0.00 0.00 57 1026.7
20230207211035 24 197 0.0 4.8 0.00 0.00 0.00 57 1026.8
20230207210535 24 145 1.6 4.8 0.00 0.00 0.00 55 1026.8
20230207210051 25 74 0.0 4.8 0.00 0.00 0.00 55 1026.7
20230207205535 25 202 0.0 4.8 0.00 0.00 0.00 53 1026.7
20230207205034 24 238 1.6 8.0 0.00 0.00 0.00 56 1026.8
20230207204536 24 153 1.6 8.0 0.00 0.00 0.00 55 1026.8
20230207204034 24 165 1.6 6.4 0.00 0.00 0.00 54 1026.8
20230207203534 25 154 1.6 6.4 0.00 0.00 0.00 54 1026.9
20230207203035 25 143 1.6 8.0 0.00 0.00 0.00 55 1026.8
20230207202537 24 146 3.2 9.7 0.00 0.00 0.00 55 1026.9
20230207202033 25 137 3.2 9.7 0.00 0.00 0.00 54 1026.9
20230207201534 25 290 1.6 6.4 0.00 0.00 0.00 54 1026.7
20230207201034 25 241 1.6 6.4 0.00 0.00 0.00 54 1026.7
20230207200532 25 163 1.6 11.3 0.00 0.00 0.00 54 1026.8
20230207200033 25 204 1.6 11.3 0.00 0.00 0.00 53 1026.8
20230207195534 25 198 3.2 8.0 0.00 0.00 0.00 54 1026.7
20230207195028 25 245 1.6 8.0 0.00 0.00 0.00 53 1026.7
20230207194527 25 212 3.2 8.0 0.00 0.00 0.00 53 1026.6
20230207194029 25 118 1.6 8.0 0.00 0.00 0.00 54 1026.5
20230207193524 25 148 3.2 8.0 0.00 0.00 0.00 52 1026.6
20230207193022 25 71 1.6 6.4 0.00 0.00 0.00 55 1026.6
20230207192522 25 333 0.0 14.5 0.00 0.00 0.00 53 1026.5
20230207192021 25 69 4.8 14.5 0.00 0.00 0.00 52 1026.7
20230207191520 25 94 1.6 8.0 0.00 0.00 0.00 54 1026.8
20230207191018 25 124 1.6 8.0 0.00 0.00 0.00 52 1026.6
20230207190517 25 92 1.6 8.0 0.00 0.00 0.00 53 1026.6
20230207190021 25 105 1.6 8.0 0.00 0.00 0.00 51 1026.6
20230207185516 25 23 3.2 8.0 0.00 0.00 0.00 50 1026.8
20230207185115 25 1 1.6 8.0 0.00 0.00 0.00 53 1026.9
20230207184516 25 153 1.6 8.0 0.00 0.00 0.00 49 1027.0
20230207184013 25 102 0.0 12.9 0.00 0.00 0.00 52 1027.1
20230207183513 25 110 1.6 12.9 0.00 0.00 0.00 50 1027.0
20230207183012 25 235 1.6 6.4 0.00 0.00 0.00 52 1027.0
20230207182512 25 137 1.6 6.4 0.00 0.00 0.00 51 1027.3
20230207182010 25 121 1.6 6.4 0.00 0.00 0.00 56 1027.2
20230207181509 25 276 1.6 12.9 0.00 0.00 0.00 54 1027.3
20230207181010 25 140 4.8 12.9 0.00 0.00 0.00 53 1027.4
20230207180510 25 306 0.0 6.4 0.00 0.00 0.00 54 1027.4
20230207180016 24 228 0.0 11.3 0.00 0.00 0.00 54 1027.6
20230207175508 24 92 3.2 11.3 0.00 0.00 0.00 54 1027.6
20230207175007 23 236 1.6 14.5 0.00 0.00 0.00 53 1027.5
20230207174607 23 94 3.2 14.5 0.00 0.00 0.00 54 1027.6
20230207174006 23 314 1.6 12.9 0.00 0.00 0.00 53 1027.9
20230207173506 24 259 1.6 8.0 0.00 0.00 0.00 54 1027.9
20230207173006 24 159 3.2 8.0 0.00 0.00 0.00 53 1027.9
20230207172505 25 165 1.6 8.0 0.00 0.00 0.00 53 1028.0
20230207172004 24 205 0.0 8.0 0.00 0.00 0.00 54 1028.0
20230207171504 24 337 0.0 8.0 0.00 0.00 0.00 56 1028.2
20230207171003 23 91 1.6 8.0 0.00 0.00 0.00 55 1028.1
20230207170502 23 129 0.0 6.4 0.00 0.00 0.00 55 1028.2
20230207170002 23 138 1.6 6.4 0.00 0.00 0.00 59 1028.2